Tracking 29892 objects as of 21-Nov-2024
HD Live streaming from Space Station
objects crossing your sky now

STARLINK-4119

Track STARLINK-4119 now!
10-day predictions
STARLINK-4119 is classified as:


NORAD ID: 53026
Int'l Code: 2022-076AS
Perigee: 545.9 km
Apogee: 548.0 km
Inclination: 53.2 °
Period: 95.4 minutes
Semi major axis: 6917 km
RCS: Unknown
Launch date: July 7, 2022
Source: United States (US)
Launch site: AIR FORCE EASTERN TEST RANGE (AFETR)
Your satellite tracking list
Your tracking list is empty




NASA's NSSDC Master Catalog

Two Line Element Set (TLE):
1 53026U 22076AS  24325.25042092  .00001790  00000-0  13060-3 0  9993
2 53026  53.2145  53.8514 0001551  64.4445 295.6708 15.08823622131361
Source of the keplerian elements: AFSPC